Main page
METAR-TAF:

METAR-TAF

Airports :

Paros National Airport

Paros, Greece

latitude: 37-01-15N, longitude: 025-06-46E, elevation: 38 m

Current weather observation

The report was made 5 hours and 2 minutes ago, at 16:50 UTC
Wind 20 kt from the North
Temperature 25°C
Humidity 61%
Pressure 1005 hPa
Visibility 10 km or more
Few clouds at a height of 2500 ft

METAR: LGPA 171650Z 35020KT 9999 FEW025 25/17 Q1005

Time: 00:52 (21:52 UTC)


TAF: missing

Weather observations and forecasts of more than 4000 airports (METAR and TAF reports).

The available stations are represented by yellow and red dots on the map.

Hover mouse over dot to see the name of the station.

Then click to see weather observations and forecasts.

To change the map : click on the green buttons with a black cross to zoom in, on the green button with a dash to zoom out, or on the green arrows for adjacent maps.


METAR-TAF: